Rbgn^[z[y[W
メイン
   新天体発見情報
     Comet P/2021 N1 (ZTF)
投稿するにはまず登録を

フラット表示 前のトピック | 次のトピック
投稿者 スレッド
佐藤裕久
投稿日時: 2021-7-25 22:40
モデレータ
登録日: 2005-6-12
居住地: 日本
投稿: 2548
オンライン
Comet P/2021 N1 (ZTF)

P. Veres (小惑星センター)からの通報転送によると、B. Bolinは、7月2日、"Zwicky Transient 
Facility" (ZTF)と呼ばれるサーベイで、Palomarにある1.2-m Schmidt望遠鏡で得た4枚の30秒 
r-バンドCCD画像から彗星を発見した。6月17日の発見前のZTF観測もあった。
小惑星センターのPCCP webpageに公表後、佐藤英貴氏(東京都文京区, 7月6.8日, 60秒露出
12枚のスタック, 0.51-m f/6.8 アストログラフ, Siding Spring, NSW, オーストラリア, 
遠隔操作: 強く集光した15" のコマが見え、p.a. 265°に向かって1'.5の尾がある。8".8の
円形範囲で測定した光度は18.4等であった)らCCD位置観測者によって彗星状と観測された。

彗星機能の報告は次のとおり、

OC   Date        Reporter           Coma    Tail    PA          Exposures
I41  2021-06-17  B. Bolin           5"     50"     245-250
Q62  2021-07-06  H. Sato           15"     90"     265           12x60s
A71  2021-07-07  M. Jaeger         14"    120"     260
G40  2021-07-07  B. Lutkenhoner     5"     40"     255           35x50s
L81  2021-07-07  A. Aletti          7"     90"     260
N51  2021-07-07  K. Sharma          5"     43"     256            4x300s
L06  2021-07-10  P. Sicoli          4"     25"     285

発見位置は次のとおり、

     2021 UT             R.A. (2000) Decl.       Mag.
     June 17.46238    1 56 02.12   +17 56 21.6   17.6
          17.46629    1 56 03.09   +17 56 28.8   17.4
          17.46825    1 56 03.62   +17 56 32.0   17.0
     July  2.46389    2 52 02.78   +24 33 32.5   18.9
           2.46641    2 52 03.34   +24 33 36.0   18.8
           2.46894    2 52 03.90   +24 33 39.4   19.0
           2.47398    2 52 04.98   +24 33 46.3   19.0
           4.46620    2 59 14.38   +25 16 44.0   19.1
           4.47123    2 59 15.49   +25 16 50.4   19.1
           4.47375    2 59 16.04   +25 16 53.7   18.9
           5.46649    3 02 48.51   +25 37 29.9   19.2
           5.46897    3 02 49.05   +25 37 32.8   19.0

MPCの楕円軌道要素、位置推算表は次のとおり、

Orbital elements:
    P/2021 N1 (ZTF)                                                             
Epoch 2021 May 26.0 TT = JDT 2459360.5                                          
T 2021 June 6.55048 TT                                  Rudenko                 
q   0.9619816            (2000.0)            P               Q                  
n   0.19243076     Peri.   21.18210     +0.78530432     +0.59511140             
a   2.9713448      Node   301.14549     -0.59282800     +0.64333561             
e   0.6762470      Incl.   11.50497     -0.17847156     +0.48162404             
P   5.12                                                                        
From 82 observations 2021 June 17-July 11, mean residual 0".6.                  
                                                                                
    P/2021 N1 (ZTF)                                                             
Epoch 2026 July 19.0 TT = JDT 2461240.5                                         
T 2026 July 22.48994 TT                                 Rudenko                 
q   0.9663056            (2000.0)            P               Q                  
n   0.19209562     Peri.   21.20633     +0.78526703     +0.59522904             
a   2.9747998      Node   301.11658     -0.59285884     +0.64346725             
e   0.6751695      Incl.   11.48511     -0.17853317     +0.48130270             
P   5.13                                                                        
From 82 observations 2021 June 17-July 11, mean residual 0".6.                  
                                                                                
    P/2021 N1 (ZTF)                                                             
Epoch 2021 July 5.0 TT = JDT 2459400.5                                          
T 2021 June 6.54931 TT                                  Rudenko                 
q   0.9619799            (2000.0)            P               Q                  
n   0.19243910     Peri.   21.18080     +0.78528820     +0.59513285             
a   2.9712590      Node   301.14524     -0.59284551     +0.64332036             
e   0.6762383      Incl.   11.50489     -0.17848427     +0.48161790             
P   5.12                                                                        
From 82 observations 2021 June 17-July 11, mean residual 0".6.                  
                                                                                
Ephemeris:
Date    TT    R. A. (2000) Decl.     Delta      r    Elong.  Phase   m1
2021 06 13    01 38 42.3 +15 32 10   1.1190  0.9665    53.6    57.7  18.1
...
2021 06 28    02 35 44.7 +22 49 12   1.2163  1.0099    52.9    53.4  18.5
...
2021 07 06    03 04 41.5 +25 48 23   1.2679  1.0496    53.3    51.0  18.7
...
2021 07 12    03 25 36.2 +27 40 15   1.3046  1.0855    54.1    49.3  18.9
2021 07 13    03 29 00.9 +27 57 09   1.3105  1.0920    54.2    49.0  19.0
2021 07 14    03 32 24.3 +28 13 34   1.3163  1.0985    54.4    48.8  19.0
...
2021 07 20    03 52 15.9 +29 42 27   1.3494  1.1402    55.5    47.3  19.2
...
2021 07 28    04 17 23.0 +31 17 48   1.3884  1.2008    57.5    45.5  19.5
...
2021 08 12    04 59 46.7 +33 19 34   1.4425  1.3258    62.5    42.7  20.0

(MPEC 2021-N115、CBET 4999)

フラット表示 前のトピック | 次のトピック

題名 投稿者 日時
 » Comet P/2021 N1 (ZTF) 佐藤裕久 2021-7-25 22:40

投稿するにはまず登録を
 
© 1999 Tsutomu Seki.